Simultaneous Nadir Overpasses (SNOs) Predictions

Prediction of SNOs between LANDSAT-8 and NOAA-19 Satellite Orbit:

Table of predicted SNOs for the next 14.0 days since TLE Epoch: 9/21/2019
Index Date (LANDSAT-8) Time (LANDSAT-8) Lat,Lon (LANDSAT-8) SZA (LANDSAT-8 ) Date (NOAA-19) Time (NOAA-19) Lat,Lon (NOAA-19) SZA (NOAA-19 ) Distance(km) Time Diff (sec)
1 09/23/2019 05:29:10 -79.10, -60.92 100.10 09/23/2019 05:28:19 -79.12, -60.95 100.10 2.43 51
2 09/23/2019 06:18:36 79.09, 106.68 79.91 09/23/2019 06:19:21 79.09, 106.54 79.91 2.91 45
3 09/25/2019 11:02:53 79.14, 35.89 80.84 09/25/2019 11:01:44 79.12, 35.79 80.79 3.10 69
4 09/25/2019 11:52:22 -79.07,-156.88 99.25 09/25/2019 11:52:42 -79.11,-156.86 99.20 3.99 20
5 09/27/2019 17:26:05 79.11, -60.09 81.69 09/27/2019 17:26:06 79.09, -60.03 81.69 1.92 1
6 09/29/2019 22:59:50 -79.12, 36.58 97.41 09/29/2019 22:59:28 -79.11, 36.60 97.43 1.83 22
7 09/29/2019 23:49:17 79.07,-156.09 82.54 09/29/2019 23:50:29 79.10,-156.12 82.59 3.58 72
8 10/02/2019 04:33:34 79.11, 133.09 83.46 10/02/2019 04:32:52 79.14, 133.08 83.47 2.91 42
9 10/02/2019 05:23:02 -79.09, -59.42 96.56 10/02/2019 05:23:51 -79.10, -59.34 96.53 1.99 49
10 10/04/2019 10:07:19 -79.13,-130.24 95.65 10/04/2019 10:06:15 -79.15,-130.25 95.65 2.01 64




NCC Satellite Simultaneous Nadir Overpasses (SNOs) Prediction Service
